Weather History for Olympia, WA

Change the Weather History Date:

Monday, December 9, 2013

  Actual Average Record
Temperature  
Mean Temperature 23 °F 38 °F  
Max Temperature 31 °F 45 °F 59 °F (1993)
Min Temperature 15 °F 33 °F 6 °F (2009)
Degree Days  
Heating Degree Days 42 26  
Month to date heating degree days 319 232  
Since 1 July heating degree days 1715 1677  
Cooling Degree Days 0 0  
Month to date cooling degree days 0 0  
Year to date cooling degree days 147 106  
Moisture  
Dew Point 22 °F    
Average Humidity 61    
Maximum Humidity 85    
Minimum Humidity 37    
Precipitation  
Precipitation T in 0.24 in 3.50 in (1956)
Month to date precipitation 0.95 2.43  
Year to date precipitation 40.39 44.97  
Sea Level Pressure  
Sea Level Pressure 30.54 in    
Wind  
Wind Speed 5 mph (SW)    
Max Wind Speed 9 mph    
Max Gust Speed 12 mph    
Visibility 7 miles    
Events Snow    
T = Trace of Precipitation, MM = Missing Value Source: NWS Daily Summary

Daily Weather History Graph

Daily Weather History Graph

Search for Another Location

Airport:

Trip Planner

Search our weather history database for the weather conditions in past years. The results will help you decide how hot, cold, wet, or windy it might be!

Date:

Astronomy

Dec. 09, 2013 Rise Set
Actual Time 7:45 AM PST 4:22 PM PST
Civil Twilight 7:10 AM PST 4:57 PM PST
Nautical Twilight 6:31 AM PST 5:36 PM PST
Astronomical Twilight 5:54 AM PST 6:13 PM PST
Moon 12:18 PM PST (12/9) No Moon Set
Length of Visible Light 9h 47m
Length of Day
8h 36m
First Quarter, 52% of the Moon is Illuminated
Dec 9
First Quarter
Dec 17
Full
Dec 25
Last Quarter
Jan 1
New
Jan 7
First Quarter

Hourly Weather History & Observations

Time (PST) Temp. Windchill Dew Point Humidity Pressure Visibility Wind Dir Wind Speed Gust Speed Precip Events Conditions
12:54 AM 36.0 °F 29.6 °F 14.0 °F 41% 30.58 in 10.0 mi SW 8.1 mph - N/A   Clear
1:54 AM 32.0 °F 28.7 °F 12.9 °F 45% 30.59 in 9.0 mi SW 3.5 mph - N/A   Scattered Clouds
2:54 AM 34.0 °F 31.0 °F 15.1 °F 46% 30.58 in 9.0 mi SE 3.5 mph - N/A   Overcast
3:54 AM 32.0 °F 28.7 °F 15.1 °F 50% 30.58 in 10.0 mi West 3.5 mph - N/A   Overcast
4:54 AM 35.1 °F 32.2 °F 16.0 °F 46% 30.57 in 10.0 mi SSW 3.5 mph - N/A   Overcast
5:54 AM 35.1 °F 30.1 °F 15.1 °F 44% 30.57 in 10.0 mi WSW 5.8 mph - N/A   Overcast
6:54 AM 39.0 °F 36.8 °F 16.0 °F 39% 30.57 in 10.0 mi SW 3.5 mph - N/A   Overcast
7:03 AM 37.9 °F 35.5 °F 16.0 °F 41% 30.56 in 10.0 mi WSW 3.5 mph - N/A   Overcast
7:54 AM 24.1 °F - 16.0 °F 71% 30.58 in 10.0 mi Calm Calm - N/A   Overcast
8:54 AM 24.1 °F 19.7 °F 17.1 °F 75% 30.58 in 9.0 mi South 3.5 mph - N/A   Overcast
9:54 AM 41.0 °F 36.4 °F 18.0 °F 40% 30.58 in 9.0 mi WSW 6.9 mph - N/A   Overcast
10:54 AM 41.0 °F 37.1 °F 17.1 °F 38% 30.58 in 10.0 mi SW 5.8 mph - N/A   Overcast
11:54 AM 27.0 °F 21.6 °F 19.0 °F 72% 30.57 in 10.0 mi West 4.6 mph - N/A   Overcast
12:54 PM 28.0 °F 22.8 °F 19.0 °F 69% 30.57 in 10.0 mi WSW 4.6 mph - N/A   Overcast
1:54 PM 28.0 °F 22.8 °F 19.0 °F 69% 30.56 in 10.0 mi SW 4.6 mph - N/A   Overcast
2:54 PM 28.0 °F 21.7 °F 21.0 °F 75% 30.55 in 10.0 mi SW 5.8 mph - N/A   Overcast
3:54 PM 28.0 °F 20.8 °F 21.9 °F 78% 30.54 in 9.0 mi SW 6.9 mph - N/A   Overcast
4:54 PM 28.0 °F 21.7 °F 23.0 °F 81% 30.53 in 10.0 mi SSW 5.8 mph - N/A   Overcast
5:25 PM 43.0 °F 39.5 °F 23.0 °F 45% 30.52 in 10.0 mi SW 5.8 mph - N/A   Overcast
5:54 PM 28.0 °F 21.7 °F 23.0 °F 81% 30.53 in 10.0 mi SW 5.8 mph - N/A   Overcast
6:54 PM 28.0 °F 24.2 °F 24.1 °F 85% 30.52 in 9.0 mi SW 3.5 mph - N/A   Overcast
7:52 PM 37.4 °F 34.9 °F 24.8 °F 60% 30.51 in 8.0 mi SW 3.5 mph - N/A   Overcast
7:54 PM 39.9 °F 36.7 °F 25.0 °F 55% 30.52 in 8.0 mi SW 4.6 mph - N/A   Overcast
8:28 PM 39.9 °F - 25.0 °F 55% 30.50 in 1.8 mi Calm Calm - N/A   Haze
8:54 PM 43.0 °F 40.3 °F 25.0 °F 49% 30.52 in 3.0 mi WSW 4.6 mph - 0.00 in   Haze
9:13 PM 43.0 °F 41.3 °F 25.0 °F 49% 30.50 in 2.5 mi SW 3.5 mph - N/A   Haze
9:24 PM 42.1 °F 39.2 °F 25.0 °F 51% 30.51 in 5.0 mi WSW 4.6 mph - N/A   Haze
9:39 PM 43.0 °F 40.3 °F 25.0 °F 49% 30.50 in 2.5 mi SW 4.6 mph - N/A   Haze
9:54 PM 42.1 °F 40.2 °F 25.0 °F 51% 30.51 in 4.0 mi WSW 3.5 mph - N/A   Haze
10:13 PM 42.1 °F 39.2 °F 26.1 °F 53% 30.50 in 1.8 mi WSW 4.6 mph - N/A   Haze
10:19 PM 43.0 °F 40.3 °F 25.0 °F 49% 30.50 in 2.0 mi SW 4.6 mph - N/A   Haze
10:33 PM 44.1 °F 40.8 °F 26.1 °F 49% 30.50 in 3.0 mi WSW 5.8 mph - N/A   Haze
10:43 PM 42.1 °F 38.4 °F 26.1 °F 53% 30.50 in 3.0 mi WSW 5.8 mph - N/A   Haze
10:54 PM 44.1 °F 41.5 °F 26.1 °F 49% 30.51 in 3.0 mi WSW 4.6 mph - N/A   Haze
11:04 PM 41.0 °F 38.0 °F 26.1 °F 55% 30.50 in 2.5 mi WSW 4.6 mph - N/A   Haze
11:09 PM 41.0 °F 38.0 °F 26.1 °F 55% 30.50 in 3.0 mi WSW 4.6 mph - N/A   Haze
11:19 PM 39.9 °F 37.8 °F 26.1 °F 58% 30.50 in 5.0 mi West 3.5 mph - N/A   Haze
11:39 PM 34.0 °F 29.8 °F 26.1 °F 73% 30.51 in 2.5 mi West 4.6 mph - 0.00 in Snow Light Snow
11:49 PM 33.8 °F 28.6 °F 26.6 °F 75% 30.51 in 1.5 mi West 5.8 mph - 0.00 in Snow Light Snow
11:54 PM 33.1 °F 28.7 °F 26.1 °F 75% 30.52 in 1.5 mi West 4.6 mph - 0.00 in Snow Light Snow